Date Time,Air Temp,Sky Temp,Clarity,Light Level,Rain Sensor,Readings
2010-03-18 00:00:10,19.5,-7.0,26.5,0.0,2.3,112
2010-03-18 00:05:10,19.6,-5.6,25.3,0.0,2.3,112
2010-03-18 00:10:10,19.8,-3.7,23.4,0.0,2.3,111
2010-03-18 00:15:10,19.8,-3.0,22.9,0.0,2.3,112
2010-03-18 00:20:10,19.9,-3.1,23.0,0.0,2.3,112
2010-03-18 00:25:10,20.0,-3.9,23.9,0.0,2.3,112
2010-03-18 00:30:10,20.1,-4.6,24.7,0.0,2.3,112
2010-03-18 00:35:10,20.2,-5.2,25.3,0.0,2.3,111
2010-03-18 00:40:10,20.2,-5.2,25.4,0.1,2.3,112
2010-03-18 00:45:10,20.3,-5.5,25.8,0.1,2.3,112
2010-03-18 00:50:10,20.3,-5.8,26.1,0.1,2.3,111
2010-03-18 00:55:10,20.4,-5.5,25.9,0.1,2.3,111
2010-03-18 01:00:10,20.4,-5.4,25.8,0.1,2.3,112
2010-03-18 01:05:10,20.4,-5.6,26.0,0.1,2.3,111
2010-03-18 01:10:10,20.4,-5.7,26.1,0.1,2.3,112
2010-03-18 01:15:10,20.4,-6.0,26.4,0.1,2.3,111
2010-03-18 01:20:10,20.4,-6.3,26.7,0.1,2.3,112
2010-03-18 01:25:10,20.4,-6.3,26.7,0.1,2.3,111
2010-03-18 01:30:10,20.4,-6.2,26.6,0.1,2.3,112
2010-03-18 01:35:10,20.3,-6.6,27.0,0.1,2.3,112
2010-03-18 01:40:10,20.3,-6.7,27.0,0.1,2.3,111
2010-03-18 01:45:10,20.3,-6.2,26.5,0.1,2.3,112
2010-03-18 01:50:10,20.2,-5.8,26.0,0.1,2.3,111
2010-03-18 01:55:10,20.2,-5.6,25.9,0.0,2.3,112
2010-03-18 02:00:10,20.3,-5.5,25.8,0.0,2.3,111
2010-03-18 02:05:10,20.3,-5.4,25.6,0.0,2.3,111
2010-03-18 02:10:10,20.3,-6.1,26.4,0.0,2.3,112
2010-03-18 02:15:10,20.4,-6.8,27.2,0.0,2.3,112
2010-03-18 02:20:10,20.4,-6.6,27.0,0.0,2.3,112
2010-03-18 02:25:10,20.4,-6.0,26.4,0.0,2.3,111
2010-03-18 02:30:10,20.4,-6.0,26.4,0.0,2.3,111
2010-03-18 02:35:10,20.5,-5.6,26.1,0.0,2.3,112
2010-03-18 02:40:10,20.5,-5.9,26.4,0.0,2.3,112
2010-03-18 02:45:10,20.6,-6.9,27.5,0.0,2.3,111
2010-03-18 02:50:10,20.5,-8.1,28.6,0.0,2.3,112
2010-03-18 02:55:10,20.5,-8.5,29.0,0.0,2.3,112
2010-03-18 03:00:10,20.5,-8.6,29.1,0.0,2.3,112
2010-03-18 03:05:10,20.5,-8.5,29.0,0.0,2.3,112
2010-03-18 03:10:10,20.4,-9.0,29.4,0.0,2.3,112
2010-03-18 03:15:10,20.4,-8.9,29.3,0.0,2.3,112
2010-03-18 03:20:10,20.4,-8.1,28.5,0.0,2.3,111
2010-03-18 03:25:10,20.4,-7.6,28.1,0.0,2.3,112
2010-03-18 03:30:10,20.4,-7.7,28.2,0.0,2.3,111
2010-03-18 03:35:10,20.4,-8.0,28.5,0.0,2.3,112
2010-03-18 03:40:10,20.4,-8.7,29.1,0.0,2.3,112
2010-03-18 03:45:10,20.4,-8.7,29.1,0.0,2.3,112
2010-03-18 03:50:10,20.4,-8.5,28.9,0.0,2.3,112
2010-03-18 03:55:10,20.5,-8.6,29.1,0.0,2.3,111
2010-03-18 04:00:10,20.4,-9.9,30.4,0.0,2.3,112
2010-03-18 04:05:10,20.4,-10.8,31.2,0.0,2.3,112
2010-03-18 04:10:10,20.4,-10.8,31.2,0.0,2.3,112
2010-03-18 04:15:10,20.4,-10.2,30.6,0.0,2.3,112
2010-03-18 04:20:10,20.5,-10.3,30.8,0.0,2.3,112
2010-03-18 04:25:10,20.4,-10.2,30.6,0.0,2.3,112
2010-03-18 04:30:10,20.3,-10.4,30.8,0.0,2.3,112
2010-03-18 04:35:10,20.3,-10.7,31.0,0.0,2.3,112
2010-03-18 04:40:10,20.3,-10.3,30.6,0.0,2.3,111
2010-03-18 04:45:10,20.4,-11.5,31.8,0.0,2.3,112
2010-03-18 04:50:10,20.4,-12.9,33.2,0.0,2.3,111
2010-03-18 04:55:10,20.4,-14.7,35.1,0.0,2.3,112
2010-03-18 05:00:10,20.3,-15.4,35.7,0.0,2.3,111
2010-03-18 05:05:10,20.2,-15.2,35.3,0.0,2.3,112
2010-03-18 05:10:10,20.1,-14.7,34.8,0.0,2.3,111
2010-03-18 05:15:10,20.1,-14.5,34.5,0.1,2.3,112
2010-03-18 05:20:10,20.0,-15.0,35.1,0.2,2.3,112
2010-03-18 05:25:10,20.0,-15.0,35.0,0.4,2.3,111
2010-03-18 05:30:10,20.1,-14.5,34.6,0.8,2.3,112
2010-03-18 05:35:10,20.1,-14.0,34.1,1.8,2.3,111
2010-03-18 05:40:10,20.2,-13.2,33.4,3.7,2.3,112
2010-03-18 05:45:10,20.2,-12.1,32.3,7.2,2.3,111
2010-03-18 05:50:10,20.3,-9.8,30.1,12.1,2.3,112
2010-03-18 05:55:10,20.4,-9.4,29.8,17.9,2.3,112
2010-03-18 06:00:10,20.4,-10.6,31.1,23.1,2.3,111
2010-03-18 06:05:10,20.5,-11.6,32.1,26.6,2.3,112
2010-03-18 06:10:10,20.4,-12.4,32.8,28.7,2.3,111
2010-03-18 06:15:10,20.3,-13.2,33.5,29.8,2.3,111
2010-03-18 06:20:10,20.3,-12.1,32.4,30.6,2.3,112
2010-03-18 06:25:10,20.3,-10.7,31.0,31.2,2.3,112
2010-03-18 06:30:10,20.3,-10.2,30.4,31.5,2.3,112
2010-03-18 06:35:10,20.3,-10.8,31.1,31.8,2.3,111
2010-03-18 06:40:10,20.3,-11.1,31.5,31.9,2.3,111
2010-03-18 06:45:10,20.4,-10.7,31.1,32.0,2.3,113
2010-03-18 06:50:10,20.5,-9.7,30.2,32.1,2.3,111
2010-03-18 06:55:10,20.6,-10.7,31.3,32.2,2.3,112
2010-03-18 07:00:10,20.7,-12.3,33.1,32.2,2.4,111
2010-03-18 07:05:10,20.8,-12.7,33.4,32.3,2.4,111
2010-03-18 07:10:10,20.9,-13.4,34.3,32.3,2.3,112
2010-03-18 07:15:10,21.0,-13.9,34.9,32.3,2.3,111
2010-03-18 07:20:10,21.1,-13.6,34.8,32.4,2.3,112
2010-03-18 07:25:10,21.2,-13.7,35.0,32.4,2.3,111
2010-03-18 07:30:10,21.3,-13.3,34.7,32.4,2.2,112
2010-03-18 07:35:10,21.5,-12.8,34.3,32.4,2.2,112
2010-03-18 07:40:10,21.6,-13.7,35.3,32.4,2.3,111
2010-03-18 07:45:10,21.8,-14.2,36.0,32.4,2.3,112
2010-03-18 07:50:10,21.9,-14.6,36.5,32.4,2.3,112
2010-03-18 07:55:10,22.0,-14.5,36.5,32.4,2.3,111
2010-03-18 08:00:10,22.1,-14.1,36.2,32.5,2.3,111
2010-03-18 08:05:10,22.3,-13.7,36.0,32.5,2.3,112
2010-03-18 08:10:10,22.5,-14.1,36.6,32.5,2.3,111
2010-03-18 08:15:10,22.6,-13.8,36.4,32.5,2.3,112
2010-03-18 08:20:10,22.7,-13.3,36.0,32.5,2.3,112
2010-03-18 08:25:10,22.9,-13.1,36.0,32.5,2.3,111
2010-03-18 08:30:10,23.0,-13.0,36.0,32.5,2.3,112
2010-03-18 08:35:10,23.2,-13.3,36.6,32.5,2.2,111
2010-03-18 08:40:10,23.3,-14.0,37.4,32.5,2.1,112
2010-03-18 08:45:10,23.4,-14.3,37.7,32.5,2.3,111
2010-03-18 08:50:10,23.3,-15.2,38.6,32.5,2.3,112
2010-03-18 08:55:10,23.3,-15.6,38.9,32.5,2.3,111
2010-03-18 09:00:10,23.4,-16.1,39.5,32.5,2.3,111
2010-03-18 09:05:10,23.5,-16.5,39.9,32.5,2.3,112
2010-03-18 09:10:10,23.4,-16.9,40.3,32.5,2.3,111
2010-03-18 09:15:10,23.3,-16.0,39.3,32.5,2.3,112
2010-03-18 09:20:10,23.3,-14.8,38.1,32.5,2.3,111
2010-03-18 09:25:10,23.3,-13.1,36.4,32.5,2.4,111
2010-03-18 09:30:10,24.1,-11.2,35.3,32.5,2.4,112
2010-03-18 09:35:10,24.3,-11.0,35.3,32.5,2.3,111
2010-03-18 09:40:10,24.6,-10.0,34.6,32.6,2.3,112
2010-03-18 09:45:10,24.9,-9.4,34.4,32.6,2.3,112
2010-03-18 09:50:10,25.2,-9.0,34.2,32.6,2.3,112
2010-03-18 09:55:10,25.6,-8.6,34.2,32.6,2.3,112
2010-03-18 10:00:10,25.6,-8.4,34.0,32.6,2.3,111
2010-03-18 10:05:10,25.4,-8.6,34.1,32.6,2.3,112
2010-03-18 10:10:10,25.5,-7.4,33.0,32.6,2.3,112
2010-03-18 10:15:10,25.9,-7.0,32.9,32.6,2.3,111
2010-03-18 10:20:10,26.1,-6.7,32.8,32.6,2.3,112
2010-03-18 10:25:10,26.0,-7.0,33.0,32.6,2.3,112
2010-03-18 10:30:10,25.8,-7.7,33.5,32.6,2.3,111
2010-03-18 10:35:10,25.9,-8.4,34.3,32.6,2.3,112
2010-03-18 10:40:10,26.1,-7.0,33.1,32.6,2.3,111
2010-03-18 10:45:10,26.6,-8.3,34.9,32.6,2.3,112
2010-03-18 10:50:10,26.3,-8.8,35.1,32.6,2.3,111
2010-03-18 10:55:10,26.0,-8.6,34.7,32.6,2.3,112
2010-03-18 11:00:10,26.1,-8.9,34.9,32.6,2.3,112
2010-03-18 11:05:10,26.0,-8.4,34.4,32.6,2.3,112
2010-03-18 11:10:10,26.1,-7.7,33.8,32.6,2.3,111
2010-03-18 11:15:10,26.0,-7.3,33.4,32.6,2.3,112
2010-03-18 11:20:10,26.1,-7.6,33.6,32.6,2.3,111
2010-03-18 11:25:10,26.0,-7.4,33.4,32.6,2.3,112
2010-03-18 11:30:10,26.0,-6.2,32.2,32.6,2.3,111
2010-03-18 11:35:10,26.0,-5.0,31.0,32.6,2.3,112
2010-03-18 11:40:10,26.2,-5.0,31.2,32.6,2.3,112
2010-03-18 11:45:10,26.5,-4.5,31.1,32.6,2.3,111
2010-03-18 11:50:10,26.7,-6.0,32.7,32.6,2.3,112
2010-03-18 11:55:10,26.4,-6.9,33.3,32.6,2.3,112
2010-03-18 12:00:10,26.1,-6.8,33.0,32.6,2.3,111
2010-03-18 12:05:10,26.3,-7.1,33.3,32.6,2.3,112
2010-03-18 12:10:10,26.5,-8.1,34.5,32.6,2.3,112
2010-03-18 12:15:10,26.9,-7.0,33.9,32.6,2.3,111
2010-03-18 12:20:10,27.0,-6.2,33.1,32.6,2.3,112
2010-03-18 12:25:10,26.8,-6.1,32.9,32.6,2.3,111
2010-03-18 12:30:10,26.7,-5.7,32.3,32.6,2.3,112
2010-03-18 12:35:10,26.7,-5.7,32.4,32.6,2.3,112
2010-03-18 12:40:10,26.4,-5.5,31.9,32.6,2.3,111
2010-03-18 12:45:10,26.3,-5.0,31.3,32.6,2.3,111
2010-03-18 12:50:10,26.3,-4.4,30.8,32.6,2.3,112
2010-03-18 12:55:10,26.5,-5.3,31.8,32.6,2.3,112
2010-03-18 13:00:10,26.6,-5.5,32.0,32.6,2.3,111
2010-03-18 13:05:10,26.6,-5.9,32.4,32.6,2.3,112
2010-03-18 13:10:10,26.8,-5.4,32.2,32.6,2.3,112
2010-03-18 13:15:10,27.3,-5.4,32.7,32.6,2.3,111
2010-03-18 13:20:10,27.6,-5.3,32.9,32.6,2.0,112
2010-03-18 13:25:10,28.0,-4.7,32.6,32.6,1.9,111
2010-03-18 13:30:10,28.0,-3.7,31.7,32.6,1.7,112
2010-03-18 13:35:10,27.5,-2.7,30.2,32.6,1.6,112
2010-03-18 13:40:10,26.9,-2.5,29.4,32.6,2.2,111
2010-03-18 13:45:10,26.0,-2.8,28.8,32.6,2.3,112
2010-03-18 13:50:10,25.8,-2.4,28.2,32.6,2.3,111
2010-03-18 13:55:10,26.1,-2.7,28.7,32.6,2.3,112
2010-03-18 14:00:10,26.0,-3.4,29.4,32.6,2.2,112
2010-03-18 14:05:10,26.0,-4.4,30.4,32.6,2.2,112
2010-03-18 14:10:10,26.4,-7.2,33.5,32.6,2.3,111
2010-03-18 14:15:10,26.4,-7.7,34.2,32.6,2.3,112
2010-03-18 14:20:10,25.8,-7.8,33.6,32.6,2.3,111
2010-03-18 14:25:10,26.1,-6.3,32.4,32.6,2.3,112
2010-03-18 14:30:10,25.9,-4.8,30.7,32.6,2.3,111
2010-03-18 14:35:10,25.6,-3.2,28.8,32.6,2.3,112
2010-03-18 14:40:10,25.6,-2.3,27.9,32.6,2.3,111
2010-03-18 14:45:10,25.6,-3.0,28.5,32.6,2.3,112
2010-03-18 14:50:10,25.6,-3.2,28.8,32.6,2.3,112
2010-03-18 14:55:10,25.7,-3.5,29.3,32.6,2.3,112
2010-03-18 15:00:10,25.6,-2.6,28.2,32.6,2.3,112
2010-03-18 15:05:10,25.5,-2.2,27.8,32.6,2.3,111
2010-03-18 15:10:10,25.4,-1.4,26.8,32.5,2.3,112
2010-03-18 15:15:10,25.3,-1.4,26.6,32.5,2.3,111
2010-03-18 15:20:10,25.1,-0.4,25.5,32.5,2.3,112
2010-03-18 15:25:10,25.0,0.1,24.9,32.5,2.3,112
2010-03-18 15:30:10,24.7,0.5,24.3,32.5,2.3,111
2010-03-18 15:35:10,24.7,0.8,23.9,32.5,2.3,111
2010-03-18 15:40:10,24.6,0.9,23.7,32.5,2.3,111
2010-03-18 15:45:10,24.4,0.6,23.8,32.5,2.3,111
2010-03-18 15:50:10,24.2,1.1,23.1,32.4,2.3,111
2010-03-18 15:55:10,24.1,1.1,23.1,32.4,2.3,111
2010-03-18 16:00:10,24.1,1.6,22.5,32.4,2.3,111
2010-03-18 16:05:10,24.1,1.3,22.8,32.4,2.3,111
2010-03-18 16:10:10,24.0,1.0,23.0,32.4,2.3,111
2010-03-18 16:15:10,23.9,0.8,23.1,32.4,2.3,112
2010-03-18 16:20:10,23.7,0.8,22.9,32.4,2.3,111
2010-03-18 16:25:10,23.6,0.3,23.3,32.4,2.3,111
2010-03-18 16:30:10,23.1,0.7,22.4,32.3,2.3,111
2010-03-18 16:35:10,23.6,0.7,22.9,32.3,2.3,111
2010-03-18 16:40:10,23.6,0.6,22.9,32.4,2.3,111
2010-03-18 16:45:10,23.1,0.9,22.2,32.4,2.3,111
2010-03-18 16:50:10,23.5,1.0,22.5,32.3,2.3,111
2010-03-18 16:55:10,23.5,1.7,21.8,32.3,2.4,111
2010-03-18 17:00:10,23.4,2.5,20.9,32.2,2.7,111
2010-03-18 17:05:10,22.4,2.7,19.7,32.2,3.3,112
2010-03-18 17:10:10,19.7,2.5,17.2,32.2,3.1,111
2010-03-18 17:15:10,18.6,2.7,15.9,32.2,3.2,111
2010-03-18 17:20:10,18.2,2.8,15.4,32.2,3.0,111
2010-03-18 17:25:10,18.0,2.6,15.4,32.2,3.1,111
2010-03-18 17:30:10,18.0,2.5,15.5,32.1,4.0,111
2010-03-18 17:35:10,17.8,3.2,14.5,32.0,3.9,111
2010-03-18 17:40:10,17.6,3.7,13.9,31.9,8.3,111
2010-03-18 17:45:10,17.5,4.2,13.3,31.7,6.6,112
2010-03-18 17:50:10,17.3,4.8,12.5,31.5,3.7,112
2010-03-18 17:55:10,17.1,6.1,11.0,31.0,3.9,111
2010-03-18 18:00:10,17.1,4.8,12.4,30.8,6.2,112
2010-03-18 18:05:10,17.1,4.2,12.9,30.1,10.4,111
2010-03-18 18:10:10,17.1,6.7,10.4,29.5,10.5,112
2010-03-18 18:15:10,17.1,6.3,10.7,28.0,12.8,112
2010-03-18 18:20:10,17.1,7.9,9.2,26.0,17.5,111
2010-03-18 18:25:10,17.2,11.1,6.1,22.7,16.5,112
2010-03-18 18:30:10,17.2,10.8,6.4,18.1,16.3,111
2010-03-18 18:35:10,17.2,11.0,6.2,9.9,12.8,112
2010-03-18 18:40:10,17.1,11.1,6.0,5.5,17.8,111
2010-03-18 18:45:10,17.3,8.4,8.9,2.4,13.3,111
2010-03-18 18:50:10,17.3,8.4,8.9,1.1,14.9,112
2010-03-18 18:55:10,17.4,7.9,9.5,0.5,12.5,111
2010-03-18 19:00:10,17.3,5.5,11.7,0.2,2.6,112
2010-03-18 19:05:10,17.1,6.0,11.1,0.1,5.1,111
2010-03-18 19:10:10,17.2,5.2,12.0,0.1,8.9,112
2010-03-18 19:15:10,17.3,5.2,12.0,0.0,7.9,111
2010-03-18 19:20:10,17.2,5.1,12.2,0.0,6.3,112
2010-03-18 19:25:10,17.2,5.9,11.3,0.0,3.2,112
2010-03-18 19:30:10,17.1,5.9,11.2,0.0,3.0,111
2010-03-18 19:35:10,17.1,6.6,10.5,0.0,15.7,111
2010-03-18 19:40:10,17.2,11.4,5.7,0.0,34.3,112
2010-03-18 19:45:10,17.1,11.5,5.6,0.0,28.0,111
2010-03-18 19:50:10,17.4,10.6,6.7,0.0,19.7,112
2010-03-18 19:55:10,17.4,10.3,7.1,0.0,30.7,111
2010-03-18 20:00:10,17.1,9.7,7.4,0.0,33.7,111
2010-03-18 20:05:10,16.9,8.6,8.3,0.0,34.6,112
2010-03-18 20:10:10,16.8,8.5,8.3,0.0,34.9,111
2010-03-18 20:15:10,16.8,8.9,7.9,0.0,34.6,111
2010-03-18 20:20:10,16.8,9.2,7.7,0.0,32.1,112
2010-03-18 20:25:10,16.9,9.3,7.6,0.0,30.3,112
2010-03-18 20:30:10,16.9,8.2,8.7,0.0,32.9,111
2010-03-18 20:35:10,16.9,8.5,8.3,0.0,33.7,111
2010-03-18 20:40:10,16.9,8.2,8.7,0.0,32.8,112
2010-03-18 20:45:10,16.8,8.1,8.7,0.0,33.3,112
2010-03-18 20:50:10,16.8,8.0,8.8,0.0,31.1,111
2010-03-18 20:55:10,16.9,9.1,7.8,0.0,30.6,111
2010-03-18 21:00:10,17.3,8.9,8.4,0.0,22.3,112
2010-03-18 21:05:10,17.5,7.0,10.5,0.0,21.8,111
2010-03-18 21:10:10,17.5,9.2,8.3,0.0,15.8,112
2010-03-18 21:15:10,17.6,8.6,9.0,0.0,7.5,111
2010-03-18 21:20:10,17.6,8.4,9.2,0.0,11.1,111
2010-03-18 21:25:10,17.7,6.2,11.5,0.0,8.7,112
2010-03-18 21:30:10,17.7,8.0,9.7,0.0,12.3,111
2010-03-18 21:35:10,17.7,7.9,9.8,0.0,6.9,112
2010-03-18 21:40:10,17.6,7.3,10.4,0.0,17.7,111
2010-03-18 21:45:10,17.6,7.1,10.5,0.0,23.9,112
2010-03-18 21:50:10,17.2,7.0,10.2,0.0,29.4,111
2010-03-18 21:55:10,17.1,7.6,9.5,0.0,21.2,112
2010-03-18 22:00:10,17.5,7.4,10.1,0.0,12.7,111
2010-03-18 22:05:10,17.6,6.7,10.9,0.0,8.7,111
2010-03-18 22:10:10,17.6,7.4,10.2,0.0,4.3,111
2010-03-18 22:15:10,17.6,7.6,10.0,0.0,11.6,112
2010-03-18 22:20:10,17.5,8.0,9.6,0.0,10.1,111
2010-03-18 22:25:10,17.6,7.1,10.5,0.0,7.2,112
2010-03-18 22:30:10,17.5,5.7,11.8,0.0,4.6,111
2010-03-18 22:35:10,17.3,5.1,12.2,0.0,3.2,112
2010-03-18 22:40:10,17.1,6.5,10.6,0.0,3.8,111
2010-03-18 22:45:10,17.1,8.0,9.1,0.0,3.5,112
2010-03-18 22:50:10,17.0,7.5,9.5,0.0,3.0,111
2010-03-18 22:55:10,16.9,7.8,9.1,0.0,4.9,111
2010-03-18 23:00:10,16.9,6.9,10.0,0.0,6.8,112
2010-03-18 23:05:10,17.0,5.9,11.1,0.0,4.6,112
2010-03-18 23:10:10,16.9,6.2,10.6,0.0,7.0,111
2010-03-18 23:15:10,16.9,6.5,10.4,0.0,4.4,112
2010-03-18 23:20:10,16.8,6.9,9.9,0.0,4.1,111
2010-03-18 23:25:10,16.8,6.9,9.9,0.0,14.3,111
2010-03-18 23:30:10,16.8,6.9,9.9,0.0,4.1,112
2010-03-18 23:35:10,16.8,6.8,10.0,0.0,3.5,111
2010-03-18 23:40:10,16.7,6.3,10.4,0.0,2.7,111
2010-03-18 23:45:10,16.7,4.4,12.3,0.0,2.8,112
2010-03-18 23:50:10,16.6,4.3,12.4,0.0,3.8,112
2010-03-18 23:55:10,16.7,4.8,11.9,0.0,6.0,111
